www.pogodaiklimat.ru
ПОГОДА в Ньюкасле
Время
и дата
04:35 30.01
04:55 30.01
05:15 30.01
05:35 30.01
05:55 30.01
06:15 30.01
06:35 30.01
06:55 30.01
07:15 30.01
07:35 30.01
07:55 30.01
08:15 30.01
08:35 30.01
08:55 30.01
09:15 30.01
09:35 30.01
09:55 30.01
10:15 30.01
10:35 30.01
10:55 30.01
11:15 30.01
11:35 30.01
11:55 30.01
12:15 30.01
12:35 30.01
12:55 30.01
13:15 30.01
13:35 30.01
13:55 30.01
14:15 30.01
14:35 30.01
14:55 30.01
15:15 30.01
15:35 30.01
15:55 30.01
16:15 30.01
16:35 30.01
16:55 30.01
17:15 30.01
17:35 30.01
17:55 30.01
18:15 30.01
18:35 30.01
18:55 30.01
19:15 30.01
19:35 30.01
19:55 30.01
20:15 30.01
Ветер
(напр.,м/с)
Видим. Явления Облачность Т
(С)
Тd
(С)
f
(%)
Тe
(С)
Тes
(С)
Комфортность P
(гПа)
Po
(гПа)
Тmin
(С)
Tmax
(С)
R
(мм)
R24
(мм)
S
(см)
С 2 н/о ясно -30.0 -33.0 75 -37 -37 опасность
обморожения
876.5
штиль 0 н/о ясно -29.0 -33.0 68 -29 -29 876.5
С 2 н/о ясно -30.0 -33.0 75 -37 -37 опасность
обморожения
876.2
С 3 н/о ясно -30.0 -33.0 75 -40 -40 опасность
обморожения
876.2
С 2 н/о ясно -29.0 -33.0 68 -36 -36 опасность
обморожения
876.2
С 2 н/о ясно -30.0 -34.0 68 -37 -37 опасность
обморожения
876.5
В 2 н/о ясно -30.0 -33.0 75 -37 -37 опасность
обморожения
876.5
С 2 н/о ясно -30.0 -33.0 75 -37 -37 опасность
обморожения
876.5
С 2 н/о ясно -30.0 -34.0 68 -37 -37 опасность
обморожения
876.8
штиль 0 н/о ясно -30.0 -34.0 68 -30 -30 876.8
С 2 н/о ясно -28.0 -33.0 62 -35 -35 опасность
обморожения
877.1
С 2 н/о ясно -26.0 -30.0 69 -33 -32 опасность
обморожения
877.1
штиль 0 16 км ясно -24.0 -28.0 69 -24 -23 877.1
штиль 0 16 км ясно -23.0 -27.0 70 -23 -22 877.1
штиль 0 16 км ясно -22.0 -27.0 64 -22 -20 877.1
штиль 0 16 км ясно -21.0 -26.0 64 -21 -19 877.1
штиль 0 н/о ясно -20.0 -26.0 59 -20 -18 876.8
штиль 0 16 км ясно -20.0 -26.0 59 -20 -16 877.1
штиль 0 н/о ясно -20.0 -26.0 59 -20 -16 877.1
штиль 0 16 км ясно -20.0 -26.0 59 -20 -16 877.4
штиль 0 16 км ясно -19.0 -26.0 54 -19 -13 877.1
штиль 0 16 км ясно -18.0 -25.0 54 -18 -12 876.5
штиль 0 16 км ясно -17.0 -25.0 50 -17 -11 876.2
Ю 2 н/о ясно -17.0 -25.0 50 -22 -17 876.2
штиль 0 н/о ясно -17.0 -26.0 45 -17 -10 876.0
штиль 0 16 км ясно -17.0 -26.0 45 -17 -10 875.7
штиль 0 16 км ясно -17.0 -25.0 50 -17 -11 875.4
штиль 0 16 км ясно -17.0 -25.0 50 -17 -11 875.1
штиль 0 16 км ясно -17.0 -25.0 50 -17 -11 875.1
штиль 0 16 км ясно -16.0 -25.0 46 -16 -12 875.1
штиль 0 16 км ясно -16.0 -25.0 46 -16 -12 874.8
штиль 0 16 км ясно -16.0 -25.0 46 -16 -12 875.1
штиль 0 16 км ясно -16.0 -25.0 46 -16 -14 875.1
штиль 0 16 км ясно -16.0 -25.0 46 -16 -14 875.1
штиль 0 16 км ясно -17.0 -25.0 50 -17 -15 875.4
ЮЗ 2 16 км ясно -17.0 -25.0 50 -22 -22 875.4
штиль 0 16 км ясно -18.0 -25.0 54 -18 -18 875.7
ЮВ 4 16 км ясно -20.0 -26.0 59 -29 -29 875.7
ЮВ 4 н/о ясно -22.0 -26.0 70 -31 -31 опасность
обморожения
875.7
ЮВ 3 н/о ясно -23.0 -27.0 70 -31 -31 опасность
обморожения
875.7
В 3 н/о ясно -22.0 -27.0 64 -30 -30 875.7
штиль 0 н/о ясно -23.0 -27.0 70 -23 -23 876.0
штиль 0 н/о ясно -22.0 -27.0 64 -22 -22 876.0
штиль 0 н/о ясно -23.0 -28.0 64 -23 -23 876.0
СВ 2 н/о ясно -23.0 -28.0 64 -29 -29 876.0
С 3 н/о ясно -23.0 -27.0 70 -31 -31 опасность
обморожения
875.7
СВ 2 н/о ясно -23.0 -27.0 70 -29 -29 875.7
штиль 0 н/о ясно -23.0 -28.0 64 -23 -23 875.7
Местоположение метеостанции Mondell Field Airport: широта 43.8854 долгота -104.3179 высота над уровнем моря 1272 м.
В архиве по умолчанию представлена погода в Ньюкасле за последние 1-2 суток. Обновление информации о фактической погоде в базе происходит ежечасно! Архивные данные за месяц целиком и за предыдущие месяцы Вы можете получить, выбрав интересующий диапазон дат из раскрывающегося списка и нажав кнопку "Ввод!".
Внимание! Архив погоды МЕТАР в базе сайта по станциям, не включенным в климатический монитор, хранится не более 60 дней. Нет смысла пытаться выбрать более раннюю дату.
*Определитесь, кто Вы:
Внимание! Время в таблицах - местное (без учета летнего времени). Для получения всемирного времени необходимо вычесть поправку, которая равна -7 ч.
Смотрите также архив погоды в соседних городах и на ближайших метеорологических станциях:
Партнеры нашего сайта:      
Пояснения к столбцам:
  • Ветер - указаны скорость ветра в м/с - средняя за 10 мин, порывы в срок и между сроками (в фигурных скобках) и направление, откуда дует ветер: С - северный,
  • СВ - северо-восточный, В - восточный, ЮВ - юго-восточный, Ю - южный, ЮЗ - юго-западный, З - западный, СЗ - северо-западный.
  • Видимость - горизонтальная дальность видимости в метрах или километрах. При видимости от 1 до 10 км при отсутствии осадков обычно наблюдается дымка, при ухудшении видимости до 1 км и менее - туман. В сухую погоду видимость может ухудшаться дымом, пылью или мглою.
  • Явления - указаны атмосферные явления, наблюдавшиеся в срок или в последний час перед сроком; фигурными скобками обозначены явления, наблюдавшиеся между сроками (за 1-3 часа до срока); квадратными скобками обозначены град или гололедные отложения с указанием их диаметра в мм.
  • Облачность - указаны через наклонную черту общая и нижняя облачность в баллах и высота нижней границы облаков в метрах; квадратными скобками обозначены формы облаков: Ci - перистые, Cs - перисто-слоистые, Cc - перисто-кучевые, Ac - высококучевые, As - высокослоистые, Sc - слоисто-кучевые, Ns - слоисто-дождевые, Cu - кучевые, Cb - кучево-дождевые. Подробнее классификацию облаков см. в Атласе облаков (PDF).
  • T - Температура воздуха - температура, измеренная на высоте 2 м над землей.
  • Td - Температура точки росы - температура, при понижении до которой содержащийся в воздухе водяной пар достигнет насыщения.
  • f - Относительная влажность воздуха - влажноcть воздуха, измеренная на высоте 2 м над землей.
  • Te - Эффективная температура - температура, которую ощущает одетый по сезону человек в тени. Характеристика душности погоды. При расчете учитывается влияние влажности воздуха и скорости ветра на теплоощущения человека.
  • Tes - Эффективная температура на солнце - температура, которую ощущает человек, с поправкой на солнечный нагрев. Характеристика знойности погоды. Зависит от высоты солнца над горизонтом, облачности и скорости ветра. Ночью, в пасмурную погоду, а также при ветре 12 м/с и более поправка равна нулю.
  • P - Атмосферное давление - приведенное к уровню моря атмосферное давление.
  • Po - Атмосферное давление - измеренное на уровне метеостанции атмосферное давление.
  • Tmin - Минимальная температура - минимум температуры воздуха на высоте 2 м над землей.
  • Tmax - Максимальная температура - максимум температуры воздуха на высоте 2 м над землей.
  • R - Количество осадков - Количество выпавших осадков за период времени, мм. При наведении курсора мыши на число - период времени, за который выпало указанное количество осадков.
  • R24 - Количество осадков - Количество выпавших осадков за 24 часа, мм.
  • S - Снежный покров - Высота снежного покрова, см. При наведении курсора мыши на число - состояние снежного покрова и степень покрытия местности в баллах.